Location: Zagreb
(45.8000°N, 16.0000°E)
Time: 00:27:59
(UTC+01:00)

Transit 2A Rocket - Pass Details

Date: 04 October 2020
Orbit: 586 x 916 km, 66.7° (Epoch: 28 October)

Event Time Altitude Azimuth Distance (km) Brightness Sun altitude
Rises 23:07:48 0° 330° (NNW) 3,462 9.2 -43.9°
Reaches altitude 10° 23:11:04 10° 347° (NNW) 2,469 8.2 -44.2°
Enters shadow 23:11:45 12° 352° (N) 2,292 7.9 -44.3°
Maximum altitude 23:15:12 20° 34° (NNE) 1,782 - -44.6°
Drops below altitude 10° 23:19:05 10° 81° (E) 2,303 - -45.0°
Sets 23:21:59 0° 98° (E) 3,159 - -45.2°
